sat.trackr.live / text

‹ back to catalog

STARLINK-31445

NORAD 59312 · 2024-056S

PAYLOAD ACTIVE UNKNOWN

§ Identity

Operator
Country
US
Launch date
2024-03-24
Launch site
AFETR
Launch vehicle
Mass (kg)
RCS (m²)

Purposes: comms

External: N2YO · Heavens-Above · Gunter

§ Orbital elements

Epoch: 2026-05-25T01:39:39.465792Z

Period
94.27 min
Inclination
42.9992°
Eccentricity
0.0001315
Mean motion
15.27577306 rev/d
Perigee alt
482.2 km
Apogee alt
484.0 km
Semi-major
6,861.2 km
B*
4.9423e-5
RAAN
166.4404°
Arg perigee
266.2123°
Mean anomaly
93.8579°
Rev number
12,275

§ Raw data

STARLINK-314451 59312U 24056S   26145.06920678  .00001098  00000+0  49423-4 0  99962 59312  42.9992 166.4404 0001315 266.2123  93.8579 15.27577306122755

JSON: /api/v1/satellites/59312 · /tle

For live sub-satellite position, see the globe view (requires WebGL).

§ Visibility from observer

Set your observer location to see the next 7 days of passes ≥ 10°. The values pass through the URL so the page stays shareable.

No JS? Fill the form by hand. The geolocation button needs JavaScript.